User: anonymous
Location: Oshawa
(43.9000°N, 78.8670°W)
Time: 01:48:43
(UTC-04:00)
Language:

Explorer 7 - Orbit

View from above orbital plane
View from above orbital plane
View from above satellite
View from above satellite

Ground track
Ground track

The orbit data is extracted from the following two-line orbital elements,

1 00022U 59009A   14261.12402319  .00002006  00000-0  19063-3 0   174
2 00022 050.2843 211.2234 0153604 175.0803 185.1694 14.89681648911501
Epoch (UTC): 18 September 2014 02:58:35
Eccentricity: 0.0153604
inclination: 50.2843°
perigee height: 492 km
apogee height: 706 km
right ascension of ascending node: 211.2234°
argument of perigee: 175.0803°
revolutions per day: 14.89681648
mean anomaly at epoch: 185.1694°
orbit number at epoch: 91150

The dashed part of the orbit path shows where the satellite is in the earth's shadow,  

DLR